RH
40 40 35 38 48 62 59 48 41 35 29 22 23 25 28 26 36 42 48 55 47 45 83 93 86 79 81 88 82 84 85 87 83 83 82 75 62 62 47 28 63 96 68 61 98 93 84 76 76
41 41 37 41 58 59 54 47 40 35 25 24 23 38 34 39 47 45 54 46 49 45 52 68 80 80 78 78 78 86 88 90 81 68 48 56 59 52 30 84 84 80 57 88 98 99 82 75 79
42 40 44 58 72 62 47 38 39 28 26 24 22 24 28 38 40 43 43 40 44 54 43 50 84 88 90 74 78 83 87 92 100 90 74 52 56 42 19 71 90 85 75 78 84 87 74 81 78
44 42 46 66 67 58 38 31 32 34 24 23 23 36 44 41 41 40 45 43 41 55 48 52 96 96 96 91 82 86 88 93 91 72 58 63 49 20 17 26 47 86 60 58 62 65 73 73 65
46 49 72 72 67 53 47 38 33 34 30 25 23 29 42 44 43 40 47 51 46 53 51 47 86 97 95 89 88 71 86 91 88 55 64 63 25 16 15 16 21 30 42 42 40 40 57 42 29
61 56 78 71 63 45 42 35 32 29 27 24 23 36 44 46 45 43 43 52 62 54 49 44 42 61 69 58 50 47 46 42 36 91 64 58 20 17 17 16 17 20 22 24 27 31 29 33 43
73 80 77 60 52 46 39 30 31 28 28 25 21 44 41 40 41 48 51 56 64 66 54 48 40 31 31 34 32 31 26 26 30 74 68 51 24 20 19 21 22 25 27 30 35 41 44 49 54
60 70 74 67 55 47 32 26 24 25 26 23 23 38 38 35 40 53 61 65 72 68 62 52 43 38 33 30 36 34 23 23 27 36 49 50 27 27 23 27 30 33 36 38 41 48 50 52 54
58 80 84 60 56 43 36 35 32 30 30 25 23 26 32 42 40 54 70 74 80 75 67 62 53 46 38 37 36 38 29 23 27 32 45 44 33 36 34 31 32 35 39 40 46 51 53 56 58
63 86 76 53 46 42 42 41 40 36 37 27 28 49 38 51 49 45 53 66 80 76 78 76 61 57 58 50 41 38 34 24 30 35 43 37 39 48 63 52 42 38 44 49 54 59 59 61 61
67 77 57 54 47 48 47 45 42 43 40 30 32 56 69 69 71 62 67 59 58 73 74 75 75 78 78 73 58 44 41 31 29 38 42 37 42 56 68 72 56 46 49 51 55 64 68 67 66
68 61 54 45 48 48 47 44 46 43 38 34 35 39 58 77 78 75 70 54 52 50 58 69 76 79 79 75 70 58 48 42 34 31 40 43 42 55 60 70 70 65 53 57 57 64 75 75 72
66 58 54 50 50 50 48 47 48 45 39 37 36 37 37 39 68 77 76 75 73 63 58 58 68 71 75 73 72 68 61 53 44 37 34 41 44 49 57 65 71 70 57 55 60 67 75 75 74
60 56 54 52 50 48 50 49 46 42 39 36 35 32 33 35 35 37 54 69 68 67 62 56 64 72 72 73 73 72 71 66 63 52 43 39 40 47 57 63 67 70 73 58 66 77 76 76 78
56 60 56 57 52 52 49 58 63 43 40 38 34 35 33 31 31 32 32 35 59 68 66 65 66 74 74 72 73 72 71 70 72 69 62 59 47 43 49 60 67 66 65 64 72 81 84 82 83
67 61 77 55 56 50 46 58 44 35 35 39 38 36 34 29 27 27 27 29 30 41 67 70 72 74 77 74 73 69 70 70 69 73 75 78 74 58 46 54 73 79 78 70 81 85 86 85 84
72 89 83 65 54 50 59 66 47 44 44 44 38 32 34 31 28 25 23 23 24 28 34 46 55 60 62 69 74 71 70 68 69 73 75 80 82 68 55 46 65 81 82 76 80 84 87 86 87
72 75 76 75 50 58 64 69 51 37 43 49 44 40 38 37 32 26 25 27 29 27 25 30 34 33 34 37 53 71 68 69 71 72 74 76 78 71 67 59 59 80 78 75 84 87 89 88 88
71 74 72 62 48 48 58 57 50 42 41 41 36 33 34 33 32 32 30 30 31 31 30 26 26 30 33 34 32 36 53 65 71 69 66 73 74 77 75 72 70 75 75 68 79 86 90 90 88
72 78 76 63 51 49 57 60 46 38 42 37 36 33 32 32 30 28 27 27 28 29 30 30 30 28 30 32 31 30 30 37 54 63 65 62 66 73 70 70 67 74 74 71 80 85 85 89 86
82 78 70 67 56 53 62 54 45 34 36 32 32 32 30 28 26 24 27 27 26 24 24 28 30 32 32 31 30 31 34 38 46 63 63 61 62 63 70 66 67 69 76 73 76 84 88 88 87
98 61 57 59 63 79 61 76 56 44 40 38 34 34 34 37 32 25 24 23 23 23 25 24 24 28 29 31 32 32 32 33 31 35 52 58 60 60 62 64 64 62 71 79 82 86 91 94 91
66 56 61 64 74 68 67 72 48 40 33 34 41 44 46 44 38 32 26 23 23 22 23 25 24 24 27 28 29 31 32 36 37 41 46 60 64 63 63 59 62 62 62 76 85 88 90 94 94
60 62 69 78 74 85 66 67 45 38 39 38 39 43 45 44 40 35 30 24 23 24 22 22 24 25 25 25 24 26 28 29 30 39 49 53 63 63 60 61 60 61 61 69 79 87 96 98 99
59 69 85 74 87 74 72 74 56 43 41 42 39 44 42 46 46 44 38 33 29 24 25 25 23 22 23 23 22 22 24 29 30 29 34 48 52 60 65 64 62 62 63 64 70 90 99 100 99
68 66 82 59 80 80 70 84 48 44 34 40 43 42 39 47 55 52 48 44 39 34 27 29 28 25 26 25 24 24 25 26 26 29 37 35 38 47 59 63 66 63 59 70 74 94 100 100 98
71 85 64 87 80 94 73 57 29 45 44 43 42 39 42 52 60 64 59 50 48 44 37 37 34 31 29 28 26 25 25 23 23 25 27 32 40 42 46 60 65 71 68 70 83 99 99 98 85
60 65 80 91 64 64 50 60 41 36 38 42 48 46 46 57 66 69 65 59 57 60 51 44 47 43 37 32 30 28 28 26 24 25 30 30 31 40 56 61 59 65 84 96 100 100 99 91 73
74 88 80 77 75 78 64 38 48 38 40 45 48 49 58 65 73 73 70 72 72 66 62 54 54 44 40 37 33 29 27 25 29 34 38 38 39 43 68 87 91 99 100 100 100 98 88 68 57
63 72 72 84 79 93 93 69 42 48 44 43 46 55 72 79 79 78 78 78 71 69 61 60 56 51 47 41 38 33 32 37 41 47 56 58 63 73 98 100 99 100 100 100 94 80 65 65 60
Wind_Speed
10 7 4 2 3 4 3 6 2 3 2 1 3 4 5 3 4 4 3 17 17 21 21 20 19 18 18 18 17 15 13 11 11 12 11 10 7 5 4 3 7 9 9 13 13 9 7 4 5
11 7 4 2 4 2 5 4 6 4 7 15 6 3 1 1 2 2 12 12 16 16 19 20 21 19 19 19 17 15 13 12 10 10 9 9 6 5 5 13 10 9 13 15 13 12 5 4 3
12 8 4 4 4 6 5 6 5 3 11 2 3 3 2 1 3 6 8 11 18 17 16 18 19 19 18 18 17 16 14 11 10 8 7 5 4 3 8 14 14 11 13 14 12 7 4 4 1
11 7 2 3 8 6 7 2 3 8 4 7 11 6 2 4 1 7 5 12 15 18 17 18 19 19 18 17 17 14 12 11 11 8 5 4 2 5 7 10 11 10 8 8 8 6 5 4 3
14 5 2 2 6 4 4 7 4 3 7 10 12 5 4 5 6 6 4 13 15 18 18 18 19 20 19 17 16 15 14 12 11 7 7 4 3 5 6 7 7 7 7 6 6 5 6 4 6
6 5 2 7 7 1 4 13 4 3 6 10 3 2 4 6 5 5 6 10 14 15 18 17 17 17 17 17 15 14 14 13 11 11 7 5 6 6 6 7 7 7 7 7 7 7 8 7 8
7 4 5 4 10 6 4 6 5 5 3 5 4 4 4 8 8 7 9 11 12 16 17 17 15 14 15 15 14 13 13 13 14 13 10 7 7 7 7 8 8 9 9 9 9 9 9 9 8
5 4 6 5 4 5 4 7 8 5 6 4 4 5 5 11 11 12 13 12 13 14 15 14 15 15 14 14 14 13 13 14 15 13 10 9 9 8 8 9 9 9 8 8 9 9 9 8 6
6 3 5 6 7 4 2 2 2 2 7 5 4 7 7 10 15 16 18 16 16 16 16 17 17 14 13 14 14 14 13 15 15 14 13 12 12 11 9 9 8 8 8 8 10 9 9 7 6
5 4 9 5 5 4 2 3 3 3 7 2 3 4 10 14 20 20 21 21 21 20 19 18 18 16 14 15 16 16 15 15 16 16 15 13 14 12 10 10 9 8 8 9 9 9 8 7 6
6 5 4 4 3 1 3 2 1 1 3 3 3 6 6 20 21 21 21 19 17 17 18 19 20 17 16 16 17 18 17 16 17 16 15 14 15 14 13 13 11 10 10 9 9 10 8 7 6
3 7 5 8 6 3 1 2 3 6 8 2 3 7 1 13 18 20 20 17 18 17 17 18 19 19 17 16 19 19 19 18 18 17 17 17 18 16 15 14 15 12 11 10 10 9 10 9 7
5 2 13 12 7 6 5 6 7 13 14 13 14 14 9 6 14 18 20 21 21 21 19 19 19 20 19 18 20 21 21 20 17 18 19 20 20 19 17 15 16 16 13 12 11 11 11 9 7
6 13 12 6 8 6 5 7 7 6 7 12 17 20 18 15 11 11 17 23 25 27 25 22 23 22 20 21 21 21 20 20 21 21 21 21 21 21 19 17 17 18 15 14 13 11 11 11 8
6 4 3 8 6 5 2 8 8 24 24 28 30 27 25 23 22 21 18 17 24 29 29 29 27 27 25 23 23 23 21 21 22 23 22 22 23 23 22 20 19 17 16 16 17 15 14 13 11
6 3 1 3 9 6 7 8 3 7 14 27 30 30 31 32 30 29 27 25 23 24 29 30 29 30 29 28 27 25 24 23 22 23 23 23 24 25 25 24 22 19 17 19 18 17 16 16 13
2 4 4 5 8 4 8 2 3 6 8 18 27 31 29 30 28 29 32 30 30 29 27 26 27 30 31 33 34 31 29 26 26 25 25 25 24 26 26 27 24 22 21 21 21 19 19 17 16
8 5 3 6 1 2 4 7 8 19 17 17 21 25 27 29 29 28 28 27 28 29 33 32 30 28 27 25 25 33 35 32 31 31 29 27 25 25 26 26 26 25 24 25 23 22 21 19 18
6 4 3 2 1 2 5 4 12 17 16 18 23 28 33 36 34 32 32 30 28 26 24 32 35 36 32 32 31 30 33 38 37 35 32 31 29 27 27 26 27 28 28 27 25 25 24 23 21
5 5 2 2 1 1 5 9 16 14 10 23 26 31 33 35 37 38 38 35 31 30 28 25 29 32 35 37 35 33 32 34 36 38 34 32 33 31 28 30 29 30 30 30 30 28 27 25 23
3 3 2 3 3 2 7 7 5 3 3 7 10 14 15 18 25 25 22 21 21 27 31 29 26 23 20 30 34 35 34 36 36 40 40 37 34 33 33 32 33 31 32 32 32 32 30 27 24
2 4 2 3 2 2 4 5 6 4 7 6 15 19 20 21 23 16 11 9 9 10 15 26 33 30 27 21 24 29 37 40 38 36 39 40 39 35 35 34 34 35 33 33 34 35 33 31 28
3 5 5 3 4 2 2 2 7 2 4 3 9 17 22 26 28 25 21 14 11 7 7 10 19 28 24 24 25 25 26 29 36 38 38 43 43 41 39 36 37 37 36 34 34 34 34 34 31
9 5 6 4 3 1 2 3 5 1 2 4 5 15 22 29 30 27 22 15 13 11 9 8 9 13 17 20 23 27 31 31 29 29 32 35 41 44 43 39 38 38 36 36 35 35 37 35 33
4 5 2 3 3 4 1 0 8 3 5 2 2 15 25 28 32 30 27 23 20 15 12 9 7 9 13 16 19 22 26 28 30 31 31 33 34 42 43 44 41 35 39 39 36 37 39 37 34
2 5 4 4 1 3 3 5 4 3 3 6 6 15 30 28 30 26 24 24 22 17 13 13 13 12 12 14 16 17 17 22 26 29 32 35 34 32 39 43 43 42 42 41 38 38 37 34 32
3 2 3 6 3 3 3 6 6 4 2 3 14 29 31 26 30 27 25 22 22 21 18 16 17 18 17 18 21 22 22 24 25 26 29 33 33 35 34 39 44 46 43 35 39 33 33 32 32
3 7 3 3 2 2 4 4 4 0 1 5 9 21 26 29 27 28 23 21 21 25 20 19 16 16 18 22 25 27 27 28 28 26 27 29 31 33 35 37 39 41 40 38 33 29 30 32 32
2 1 5 4 3 3 2 4 5 4 2 4 11 22 24 25 27 26 24 24 23 22 18 15 14 15 15 15 19 23 26 27 25 23 25 27 29 31 32 32 31 32 32 29 26 28 31 30 28
2 5 4 4 3 1 1 6 3 6 3 4 15 18 15 23 23 25 24 22 25 18 18 15 17 20 21 20 17 19 23 24 21 19 20 23 25 26 25 24 24 26 26 24 27 29 28 25 23
Wind_Direction
243 243 235 261 48 62 261 260 262 277 292 4 319 202 215 138 168 209 229 168 172 177 167 171 172 171 163 166 176 186 191 187 196 201 208 215 218 228 227 152 123 132 133 134 139 139 147 127 103
231 235 201 131 106 116 263 249 242 228 295 311 260 193 292 178 161 152 141 158 164 181 167 170 173 175 175 176 183 187 194 192 196 184 192 191 191 167 141 124 128 126 128 141 150 149 137 134 123
214 208 173 134 152 185 219 217 237 299 337 323 329 272 251 201 174 159 154 163 168 179 176 173 173 178 182 183 185 190 197 192 184 194 177 149 154 146 144 151 143 149 146 160 163 176 160 154 186
191 170 98 123 221 244 200 196 179 344 344 42 8 307 230 174 153 185 175 179 176 174 177 180 169 179 182 183 185 188 191 194 195 201 200 164 149 140 145 164 179 161 163 157 168 179 190 213 201
169 152 125 224 246 241 246 265 286 319 301 319 334 288 272 188 149 175 215 178 179 175 177 182 173 176 189 189 188 194 193 198 200 209 182 181 153 143 143 153 167 164 172 173 170 173 172 161 150
137 141 113 216 242 233 258 258 284 255 298 313 292 257 247 176 180 180 187 185 176 182 182 183 182 184 190 194 197 202 204 209 209 193 196 192 167 156 147 141 146 152 153 153 149 142 145 149 156
144 118 191 209 245 288 232 239 229 257 264 302 280 158 266 194 191 184 177 182 183 187 191 189 190 193 192 192 196 203 209 207 203 205 203 198 180 167 154 146 141 139 139 140 143 144 147 155 159
178 115 160 220 181 257 209 199 245 236 281 308 205 200 249 198 186 174 176 183 187 192 197 199 199 201 199 200 201 208 213 208 203 205 207 198 188 176 166 157 153 150 150 151 151 154 157 164 169
170 112 191 201 159 215 121 159 138 282 272 298 227 254 248 211 188 181 179 182 189 195 202 205 207 209 209 213 216 218 215 213 211 209 210 203 193 186 176 170 169 167 165 164 163 167 172 177 186
173 168 201 206 180 185 127 120 323 340 335 309 285 281 247 206 194 192 194 195 196 198 204 207 209 211 217 224 225 227 223 219 217 211 211 207 201 200 195 187 182 182 180 178 174 182 185 188 196
187 201 187 231 188 151 149 308 4 12 306 258 326 25 194 189 197 200 203 208 213 210 215 218 214 214 224 232 232 231 229 225 225 217 216 214 210 210 206 201 197 196 195 195 193 195 196 193 197
172 210 179 245 227 282 262 297 287 239 240 280 331 352 182 206 208 213 221 222 224 228 227 231 228 226 233 239 239 236 234 231 229 227 225 221 219 220 217 215 211 210 209 212 209 211 208 211 218
178 204 217 234 237 275 251 241 240 259 260 263 268 275 277 262 232 231 239 241 239 239 239 238 235 238 240 245 241 237 237 238 239 238 234 230 228 229 226 221 217 214 216 218 218 218 217 212 230
204 206 243 251 241 252 225 250 234 250 258 251 261 262 265 260 259 253 245 245 244 245 248 248 244 242 245 248 247 245 243 243 241 240 239 239 235 233 231 225 218 215 220 221 221 220 221 223 240
170 116 240 247 216 231 150 271 231 254 259 267 265 265 265 265 263 262 259 257 250 247 252 247 247 245 246 249 252 249 247 244 245 243 241 244 242 236 233 228 223 222 223 224 219 219 224 230 242
127 110 226 276 171 215 156 254 263 262 257 259 266 268 267 266 264 262 263 259 257 251 246 247 246 247 247 248 251 251 250 248 249 244 242 243 246 241 236 231 228 227 229 225 224 229 232 235 246
176 180 190 307 192 157 188 284 279 327 286 271 273 274 273 271 264 260 260 261 252 251 247 242 245 247 250 252 251 253 253 251 253 248 243 242 247 243 239 235 230 228 231 228 228 233 234 236 245
173 186 196 205 282 147 258 278 278 288 288 270 274 281 281 281 274 269 265 269 259 254 246 244 242 245 248 251 250 249 251 253 252 253 249 246 244 243 237 236 229 227 231 229 230 237 236 238 244
144 151 166 222 63 308 255 264 284 276 272 266 268 271 273 274 278 278 274 274 269 258 256 248 246 246 244 241 245 246 247 247 246 250 249 251 247 240 235 235 229 229 231 231 232 235 233 237 241
110 124 192 303 350 337 319 290 268 263 239 252 258 265 273 283 287 285 282 277 270 262 257 254 250 251 246 245 247 249 252 252 250 249 252 251 250 247 238 239 238 231 232 230 232 235 234 234 239
79 133 172 218 350 46 330 287 291 327 353 305 305 285 296 308 302 296 295 285 275 266 257 250 248 252 256 245 245 244 247 249 248 244 247 249 249 249 244 241 244 240 234 234 235 236 235 236 240
84 219 134 82 71 251 13 289 298 340 329 62 33 55 47 40 36 17 346 320 306 286 265 252 242 242 248 246 248 248 248 249 252 252 250 249 251 248 248 247 244 249 241 236 238 240 238 235 235
185 117 116 96 94 29 342 117 270 357 60 93 29 42 38 34 29 27 27 14 355 320 282 257 248 237 242 246 252 250 254 261 257 255 253 248 248 249 248 246 245 246 246 242 240 243 240 240 239
141 86 56 53 85 23 270 172 288 113 64 324 353 26 27 22 17 13 14 11 4 353 324 287 257 242 244 253 259 261 259 256 256 259 256 254 248 246 249 246 245 247 248 246 243 243 242 242 242
81 84 334 359 21 218 289 149 247 287 307 201 108 15 16 14 7 3 0 356 353 344 337 324 282 257 254 257 259 267 260 253 251 249 254 253 250 248 245 245 245 246 253 248 245 241 240 239 243
84 144 162 193 138 276 352 235 254 231 8 115 33 7 4 0 3 360 356 350 342 329 316 306 295 274 270 266 268 271 271 267 260 254 250 253 252 252 246 248 246 242 246 243 244 240 238 237 238
186 69 183 107 28 43 242 285 317 45 134 330 355 355 353 352 354 350 347 345 341 330 311 285 283 280 274 279 279 276 276 275 275 271 262 256 252 250 250 243 245 244 244 245 245 240 234 235 235
126 154 77 5 104 273 270 282 245 289 205 303 341 342 346 344 346 341 342 334 331 327 315 301 290 295 283 269 271 273 275 277 281 275 262 255 253 254 251 249 244 240 236 235 233 227 228 230 230
113 77 56 105 93 165 293 270 207 216 211 354 324 340 338 338 335 335 331 325 325 328 307 290 283 289 298 302 284 275 274 275 277 271 256 250 253 256 254 248 245 234 232 225 224 223 222 222 222
137 162 131 120 208 39 148 276 237 246 231 306 304 324 337 332 337 336 333 334 328 311 308 293 289 296 303 300 303 311 298 285 276 266 257 255 254 251 248 244 230 219 215 218 214 214 213 214 212